Location: Gro� Glienicke
(52.4675°N, 13.1079°E)
Time: 18:47:21
(UTC+00:00)

EO 1 Del DPAF - Pass Details

Date: 06 July 2020
Orbit: 512 x 518 km, 98.0° (Epoch: 12 August)

Event Time Altitude Azimuth Distance (km) Brightness Sun altitude
Rises 22:21:37 0° 13° (NNE) 2,648 8.1 -14.2°
Reaches altitude 10° 22:23:44 10° 11° (NNE) 1,755 7.0 -14.2°
Maximum altitude 22:27:30 74° 288° (WNW) 542 3.3 -14.3°
Enters shadow 22:29:56 21° 205° (SSW) 1,205 4.6 -14.4°
